RH
81 85 83 80 88 93 96 98 96 95 82 88 85 85 83 88 88 88 94 93 95 96 95 96 98 98 97 97 98 97 98 98 90 86 87 86 89 92 85 76 84 95 98
90 92 83 78 85 96 96 95 94 84 84 96 97 97 94 92 89 90 96 93 94 94 95 98 94 99 97 98 99 100 92 84 84 82 84 87 90 94 84 77 85 90 91
91 93 91 81 79 87 96 95 92 84 77 93 93 97 93 91 92 94 99 93 91 96 94 89 98 99 98 97 99 81 74 77 75 80 84 89 97 96 94 92 91 94 93
93 95 97 90 83 89 92 93 78 82 80 94 96 99 97 94 96 97 98 99 97 95 85 97 100 98 99 99 95 72 72 82 85 80 85 88 94 98 98 97 98 98 96
98 98 99 93 100 99 95 76 78 77 79 98 100 95 98 99 98 98 97 98 98 98 95 97 97 96 97 99 88 80 77 78 76 84 86 82 88 96 98 98 100 98 98
99 97 96 98 99 98 89 87 96 98 93 100 96 94 94 96 96 96 94 94 97 98 99 99 100 100 97 87 85 82 74 70 66 69 76 82 87 89 92 92 92 99 99
96 99 98 94 97 97 97 68 82 99 100 97 92 90 89 87 88 90 90 91 92 93 95 97 98 97 90 84 85 81 72 69 70 73 77 83 88 88 89 90 89 87 91
92 98 95 94 96 90 98 91 78 86 98 97 92 91 91 88 89 89 90 90 89 89 89 89 92 91 85 78 76 73 68 58 61 65 71 80 86 84 81 79 79 80 85
99 98 100 99 99 90 92 95 91 90 94 90 90 90 91 90 90 89 88 88 87 86 85 86 84 64 68 72 69 68 64 55 55 57 57 71 82 80 77 77 76 78 83
96 97 99 100 99 98 99 91 89 81 86 87 95 97 95 93 90 88 87 84 82 82 83 81 79 48 38 41 41 36 33 33 41 47 61 74 76 73 70 70 72 74 75
91 94 100 94 98 90 93 98 97 92 89 86 96 93 81 76 70 78 85 82 80 74 71 68 42 13 13 18 17 13 18 28 35 44 58 70 71 70 77 80 79 83 84
95 88 98 98 97 92 89 91 98 98 94 91 80 66 61 62 66 77 81 80 77 70 57 16 8 11 18 18 13 16 19 30 43 58 84 81 81 86 82 85 85 82 89
91 91 91 99 94 92 93 86 83 91 87 79 70 56 55 62 63 60 39 30 22 22 20 18 19 18 20 19 19 21 22 32 43 65 83 85 89 90 84 84 84 84 84
86 92 89 94 97 92 92 87 82 80 68 62 56 52 46 40 31 30 30 29 25 25 24 22 22 20 18 21 21 20 22 32 42 70 92 90 87 83 80 82 83 83 83
80 89 85 85 84 83 81 75 65 53 45 41 41 36 30 26 25 20 28 26 27 25 24 22 20 20 19 22 24 21 23 32 46 74 86 86 86 87 84 81 80 78 79
74 82 83 80 76 73 72 67 58 48 40 37 34 31 30 29 24 22 19 18 21 18 17 22 21 23 23 21 23 22 24 28 41 59 73 86 89 86 82 79 79 80 81
67 77 82 77 73 71 68 62 53 47 42 38 36 34 32 32 30 29 28 27 26 23 20 21 18 21 21 20 23 22 21 24 26 29 35 48 60 41 48 69 73 77 78
64 72 81 75 72 69 65 59 50 44 42 40 36 33 30 32 32 31 30 31 29 26 27 26 24 24 22 21 22 24 23 23 22 26 28 29 32 31 37 17 24 40 69
64 68 76 73 69 66 60 53 45 44 41 41 38 33 31 30 29 32 32 31 30 30 29 25 26 24 25 25 24 28 27 25 24 24 27 33 36 35 34 38 36 37 41
60 65 72 69 65 63 56 51 45 43 42 43 40 33 27 24 28 33 32 26 31 31 28 28 29 30 28 24 20 30 32 29 28 27 27 28 36 36 35 38 39 38 47
60 63 67 70 61 58 54 50 46 46 48 42 33 28 25 24 28 32 32 33 31 29 28 26 30 33 33 30 30 34 33 32 29 30 30 28 34 33 33 36 37 38 41
60 63 65 68 62 56 53 48 45 44 45 47 38 36 30 25 25 29 27 31 32 31 31 30 30 31 36 36 29 23 34 33 30 32 31 31 31 32 32 35 38 40 43
60 64 64 63 63 57 53 48 45 41 44 49 41 35 28 22 20 26 27 26 29 31 34 36 35 32 32 38 36 33 30 30 27 32 31 32 30 32 32 37 37 41 44
64 64 66 64 62 59 54 49 46 50 48 47 45 39 34 30 30 30 30 33 34 34 35 37 36 36 30 34 37 33 35 35 29 33 30 33 34 31 36 38 40 41 43
73 72 70 68 65 60 56 51 49 51 47 42 43 40 35 36 31 29 32 33 33 36 37 35 40 37 34 30 32 35 33 34 32 26 27 30 29 30 34 40 41 41 42
68 72 73 70 68 64 58 54 54 51 44 44 48 48 46 42 31 30 32 36 33 37 38 41 41 41 37 36 36 34 30 29 28 28 27 26 30 32 36 40 41 42 44
Wind_Speed
6 4 9 12 10 8 8 8 12 12 15 16 16 16 17 16 15 14 14 17 16 17 16 16 17 19 21 20 20 20 20 20 20 20 21 21 19 18 18 19 18 18 19
5 4 8 10 12 9 11 10 10 12 14 16 17 18 18 16 16 15 15 18 17 17 16 16 17 19 21 20 20 20 23 25 24 21 20 19 18 18 19 18 19 18 18
3 3 3 6 12 11 12 12 12 11 14 16 19 20 21 20 18 18 18 19 17 17 16 16 17 19 20 19 18 20 22 23 21 19 17 18 18 17 16 18 18 17 17
6 5 3 4 11 10 9 11 13 14 16 19 20 20 22 23 22 21 18 18 18 17 17 17 18 18 19 17 17 20 22 19 17 22 23 19 18 19 20 19 19 17 16
8 4 8 10 10 11 12 2 17 20 18 18 23 21 20 22 20 19 17 16 17 17 18 17 17 17 17 17 18 20 21 21 15 19 19 18 16 16 16 17 17 18 19
8 6 12 15 15 12 7 13 13 20 19 26 25 21 21 19 18 18 17 16 15 16 17 17 17 16 16 17 17 20 21 19 15 15 14 14 14 13 14 13 14 15 15
8 8 9 11 14 15 18 13 12 18 30 28 25 20 17 18 16 16 18 15 14 15 15 16 16 16 15 17 17 18 18 17 13 13 13 13 13 12 13 14 14 12 11
8 5 9 12 17 17 16 18 15 14 20 24 21 21 17 16 15 17 16 15 15 15 15 15 14 14 14 14 15 14 13 14 12 12 11 11 11 11 11 11 12 12 13
8 8 13 12 16 20 19 19 20 19 18 19 19 20 19 18 17 17 15 14 13 14 15 13 13 12 10 11 11 11 10 12 10 10 9 9 11 11 11 11 12 12 13
10 10 13 14 14 20 22 17 19 22 19 21 17 19 19 20 18 17 14 13 13 14 14 13 13 12 10 10 9 10 10 12 10 10 9 9 9 10 10 11 11 12 12
13 11 16 18 20 22 23 23 21 20 22 20 20 19 17 16 15 12 12 12 13 12 12 12 12 11 10 9 9 9 10 9 9 9 8 10 9 11 13 14 14 14 14
16 15 15 22 24 25 24 24 24 23 21 19 19 15 13 12 12 12 14 14 12 12 11 10 10 11 9 7 8 9 8 9 11 11 11 10 13 14 13 13 13 11 12
22 20 19 22 24 22 25 25 24 22 21 17 13 14 15 14 15 10 12 8 8 9 6 7 7 7 8 8 9 7 8 9 10 12 14 12 14 15 13 13 12 11 11
25 24 23 23 21 21 23 17 14 16 14 15 17 15 14 11 12 9 7 8 8 6 6 6 6 8 9 10 9 8 8 10 10 12 14 16 14 12 12 12 12 11 11
25 25 25 24 22 21 20 16 14 12 12 11 14 13 12 11 9 10 8 8 7 7 6 6 6 6 8 9 8 9 9 10 10 12 13 14 14 13 12 11 11 10 10
24 25 25 24 23 21 21 19 16 14 13 14 12 11 9 10 10 9 8 8 8 7 8 7 6 6 7 8 8 8 9 10 10 10 11 12 13 13 13 12 11 11 10
26 25 27 27 25 24 22 20 19 17 15 13 11 13 12 11 10 10 9 10 8 7 9 6 7 7 7 7 8 7 9 9 9 9 8 6 5 5 8 11 10 10 10
25 27 28 28 28 25 22 21 18 18 17 17 16 14 14 13 14 12 10 8 9 10 9 7 6 7 6 5 6 5 6 7 7 6 6 5 4 3 6 6 6 8 10
28 29 30 30 29 27 24 21 18 16 15 14 15 19 19 16 15 12 12 11 10 9 8 7 6 5 5 6 6 5 6 6 5 5 5 4 5 4 4 6 9 9 9
23 26 27 27 27 26 22 19 18 17 15 17 17 17 18 18 16 13 11 11 9 8 7 7 6 6 5 5 5 5 5 6 5 6 5 4 3 2 3 5 5 5 7
20 24 27 28 26 27 25 24 21 20 16 18 21 20 20 18 17 14 13 12 9 9 9 8 8 7 6 3 5 4 4 4 5 6 6 5 2 1 2 4 4 5 5
15 19 23 26 27 27 22 20 20 19 15 16 19 21 19 20 19 17 15 13 11 10 9 8 9 8 5 3 3 2 3 4 7 7 5 6 4 2 2 4 4 5 5
8 13 17 22 25 27 23 22 19 19 18 15 19 21 20 20 20 16 17 16 14 11 10 8 7 7 7 3 4 2 1 1 7 6 6 6 4 3 2 4 4 3 4
1 6 12 16 20 24 23 24 25 23 20 15 22 23 21 18 20 20 18 16 15 14 11 9 8 7 6 7 4 2 2 2 2 3 6 5 3 4 3 3 4 3 4
8 1 6 12 17 20 22 21 22 19 20 23 24 24 23 21 21 20 17 14 13 12 10 9 9 7 6 6 4 4 2 1 0 2 1 7 4 3 4 4 4 3 4
12 6 1 7 13 17 20 21 20 19 23 27 27 27 25 24 22 19 17 15 14 11 10 8 6 6 5 6 5 4 2 1 1 1 2 3 5 6 5 7 5 4 5
Wind_Direction
164 171 202 187 183 189 200 201 199 201 185 165 154 147 144 151 145 135 125 115 104 97 95 95 103 105 102 97 98 99 96 100 102 104 101 95 89 84 82 84 80 80 81
178 198 210 203 195 202 204 211 210 202 184 164 159 154 152 150 143 139 129 114 102 94 92 88 100 105 100 96 94 95 101 100 97 93 92 89 90 88 87 88 85 80 78
147 176 185 221 216 218 215 213 214 202 191 172 161 151 144 137 124 118 110 104 103 96 97 93 97 99 100 99 95 102 104 101 96 95 90 84 79 85 88 83 83 81 78
136 119 76 259 218 219 221 226 215 205 190 171 155 140 131 127 119 106 95 96 97 101 113 97 97 101 100 97 99 107 107 97 91 93 86 77 71 70 73 79 76 80 80
135 116 107 87 124 157 152 232 214 202 198 166 137 126 124 111 99 98 100 99 100 101 105 106 104 108 107 99 109 110 110 97 84 82 82 80 68 65 68 69 72 74 77
135 122 121 104 100 110 128 76 180 174 139 122 96 98 92 95 105 108 109 105 102 102 100 99 98 102 103 112 117 116 110 95 91 94 85 75 78 73 68 72 75 73 71
128 119 138 129 113 100 89 140 52 72 109 110 110 103 108 110 111 110 104 106 108 103 101 100 99 98 105 119 122 119 111 99 95 91 87 81 72 70 71 70 67 73 76
147 134 136 126 122 109 107 103 114 81 90 101 110 118 112 114 116 110 110 111 104 103 99 98 101 101 114 127 127 122 113 95 88 85 84 76 68 64 65 68 68 69 72
146 139 131 129 123 125 117 112 119 115 102 102 111 121 129 126 117 108 108 109 107 103 99 98 99 111 127 133 131 125 116 102 82 78 78 69 66 63 61 63 65 68 71
155 173 150 136 132 130 124 128 131 134 132 123 124 126 127 122 110 102 108 110 107 102 105 105 101 110 131 135 131 122 108 79 73 73 66 71 67 66 67 69 71 67 65
171 163 155 150 146 139 129 129 135 140 146 148 144 142 131 118 114 121 118 110 105 107 110 112 109 103 96 110 115 105 88 82 77 71 61 70 75 79 78 77 77 77 76
183 173 168 158 156 152 147 151 146 148 149 157 155 138 128 115 123 139 131 119 114 111 112 110 108 92 88 86 84 78 82 87 83 76 69 81 88 88 82 73 71 76 67
186 176 173 169 167 163 161 165 171 167 165 162 164 154 143 149 151 145 136 122 116 93 92 87 88 98 93 95 87 90 96 93 91 85 83 85 87 82 76 71 67 65 63
187 184 177 175 178 179 177 167 163 168 173 177 169 166 155 154 150 147 148 141 124 119 109 97 86 88 86 91 88 89 93 100 102 99 93 90 88 87 80 75 70 66 62
195 187 184 182 182 179 174 177 172 169 170 171 173 167 168 155 157 151 143 140 133 120 106 99 102 95 86 85 89 95 98 105 109 111 116 100 93 88 79 70 62 57 52
199 196 189 189 184 181 177 175 176 175 172 167 166 165 157 157 158 150 143 134 126 130 124 119 103 102 99 95 97 97 105 109 114 117 118 102 94 86 73 61 55 51 43
201 196 192 190 186 184 182 177 176 175 176 169 165 168 162 159 154 147 149 137 127 125 109 97 97 90 103 103 101 106 106 108 116 126 127 124 90 77 65 59 54 45 31
198 196 193 192 189 186 185 179 176 178 173 172 176 172 173 166 158 155 147 151 143 135 134 122 104 104 112 120 118 126 117 111 113 119 123 132 132 103 37 36 38 30 26
197 194 190 189 190 186 182 177 178 177 171 170 172 175 176 172 163 155 155 159 147 134 126 123 121 125 140 136 132 127 121 128 135 133 134 126 117 96 80 27 18 16 13
199 196 191 191 189 184 177 176 173 172 171 177 178 178 179 174 164 162 157 155 146 138 130 123 113 107 111 123 135 130 137 144 153 162 162 150 132 93 45 31 30 0 3
197 196 193 190 189 183 178 175 175 176 177 182 184 180 179 178 168 166 160 152 146 142 143 139 132 125 96 123 141 138 150 171 172 175 187 186 177 175 17 10 18 349 348
203 202 195 193 190 188 184 183 178 174 182 182 181 179 182 179 176 174 170 159 152 151 145 155 154 141 123 140 249 226 183 195 217 206 203 217 233 253 325 340 359 344 348
207 205 204 197 194 190 186 179 173 170 156 167 183 185 183 184 182 178 176 171 165 160 154 151 153 173 149 141 146 238 211 234 149 178 212 222 228 247 327 318 332 345 347
21 201 206 202 198 196 192 184 178 169 168 188 178 183 181 182 182 179 175 176 167 165 158 158 155 168 167 165 140 110 109 28 274 170 185 207 223 271 303 301 323 336 337
27 72 213 203 202 199 200 196 189 184 181 169 170 179 184 184 185 183 177 167 168 156 158 161 158 154 155 158 176 151 127 72 349 288 191 162 200 235 299 304 309 314 325
30 36 172 206 207 205 204 202 199 194 172 161 164 169 176 181 180 180 178 168 164 159 154 147 146 141 136 135 138 130 174 177 138 324 294 316 320 303 308 299 302 293 315